sat.trackr.live / text

‹ back to catalog

STARLINK-4290

NORAD 53006 · 2022-076W

PAYLOAD ACTIVE UNKNOWN

§ Identity

Operator
Country
US
Launch date
2022-07-07
Launch site
AFETR
Launch vehicle
Mass (kg)
RCS (m²)

Purposes: comms

External: N2YO · Heavens-Above · Gunter

§ Orbital elements

Epoch: 2026-09-19T01:22:27.117120Z

Period
93.79 min
Inclination
53.1591°
Eccentricity
0.0001499
Mean motion
15.35398896 rev/d
Perigee alt
458.7 km
Apogee alt
460.8 km
Semi-major
6,837.9 km
B*
1.2774e-5
RAAN
291.0507°
Arg perigee
77.4874°
Mean anomaly
282.6297°
Rev number
23,224

§ Raw data

STARLINK-42901 53006U 22076W   26262.05725830  .00000065  00000+0  12774-4 0  99942 53006  53.1591 291.0507 0001499  77.4874 282.6297 15.35398896232240

JSON: /api/v1/satellites/53006 · /tle

For live sub-satellite position, see the globe view (requires WebGL).

§ Visibility from observer

Set your observer location to see the next 7 days of passes ≥ 10°. The values pass through the URL so the page stays shareable.

No JS? Fill the form by hand. The geolocation button needs JavaScript.